Simultaneous Nadir Overpasses (SNOs) Predictions

Prediction of SNOs between NOAA-20 and AQUA Satellite Orbit:

Table of predicted SNOs for the next 14.0 days since TLE Epoch: 3/5/2022
Index Date (NOAA-20) Time (NOAA-20) Lat,Lon (NOAA-20) SZA (NOAA-20 ) Date (AQUA) Time (AQUA) Lat,Lon (AQUA) SZA (AQUA ) Distance(km) Time Diff (sec)
1 03/07/2022 13:39:08 -76.42, 35.83 77.75 03/07/2022 13:39:50 -76.43, 35.90 77.80 2.20 42
2 03/07/2022 14:29:33 77.26,-153.52 101.19 03/07/2022 14:28:58 77.26,-153.43 101.19 2.35 35
3 03/10/2022 05:55:50 -77.13, 154.38 79.70 03/10/2022 05:55:57 -77.12, 154.29 79.68 2.39 7
4 03/10/2022 06:46:18 77.80, -35.21 99.40 03/10/2022 06:45:08 77.79, -35.32 99.48 2.74 70
5 03/12/2022 21:22:16 76.51, 100.36 100.04 03/12/2022 21:23:04 76.51, 100.37 99.99 0.29 48
6 03/12/2022 22:12:39 -77.51, -88.16 81.27 03/12/2022 22:12:10 -77.50, -88.28 81.22 2.98 29
7 03/15/2022 13:39:01 77.08,-141.61 98.24 03/15/2022 13:39:13 77.07,-141.69 98.25 2.08 12
8 03/15/2022 14:29:33 -77.63, 28.17 82.50 03/15/2022 14:28:27 -77.63, 28.20 82.45 0.56 66
9 03/18/2022 05:05:28 -76.46, 164.40 82.04 03/18/2022 05:06:20 -76.46, 164.41 82.09 0.19 52



Historial Predications of SNOs between NOAA-20 and AQUA
